Regional Weather Roundup
Issued by NWS Sioux Falls, SD

Home | Current Version | Previous Version | Text Only | Print | Product List | Glossary On
Versions: 1 2 3 4 5 6 7 8 9 10 11 12 13 14 15 16 17 18 19 20 21 22 23 24 25 26 27 28 29 30 31 32 33 34 35 36 37 38 39 40 41 42 43 44 45 46 47 48 49 50
000
ASUS43 KFSD 250402
RWRFSD

WEATHER ROUNDUP FOR SE SOUTH DAKOTA/SW MINNESOTA/NW IOWA
NATIONAL WEATHER SERVICE SIOUX FALLS SD
1000 PM CST FRI FEB 24 2017

NOTE: "FAIR" INDICATES FEW OR NO CLOUDS BELOW 12,000 FEET WITH NO
SIGNIFICANT WEATHER AND OR OBSTRUCTIONS TO VISIBILITY.


SDZ038>040-050-052>070-250500-
SOUTHEAST SOUTH DAKOTA

CITY           SKY/WX    TMP DP  RH WIND       PRES   REMARKS
BROOKINGS      CLOUDY    20  14  77 N20       30.03R WCI   4
CHAMBERLAIN    CLEAR     25  16  68 N8        30.13R WCI  17
HURON          CLEAR     21  16  81 N13       30.11S WCI   9
MADISON        FAIR      19  19 100 N15       30.04S WCI   5
MITCHELL       CLEAR     23  17  78 N14       30.11S WCI  11
SIOUX FALLS    CLOUDY    21  13  71 N24       30.04R WCI   4
WINNER         FAIR      18  11  74 NW7       30.13R WCI   9
YANKTON        CLEAR     21  14  73 NW17      30.08R WCI   7
$$

MNZ071-072-080-081-089-090-097-098-250500-
SOUTHWEST MINNESOTA

CITY           SKY/WX    TMP DP  RH WIND       PRES   REMARKS
FAIRMONT       CLOUDY    20  15  81 NW23G31   29.91R WCI   3
JACKSON        CLOUDY    21  14  73 NW26G38   29.93R WCI   4
LUVERNE        CLEAR     21  12  68 N18       30.02R WCI   6
MARSHALL       CLOUDY    20  13  74 N24G30    30.01R WCI   3
MONTEVIDEO     CLEAR     19  14  79 N21       30.03F WCI   3
PIPESTONE      CLOUDY    19  10  68 N16G28    30.00R WCI   5
REDWOOD FALLS  CLOUDY    21  13  71 NW17G29   29.97R WCI   7
TRACY          CLEAR     21  16  80 NW21G29   29.99S WCI   5
WINDOM         CLOUDY    19  14  79 NW25G35   29.94R WCI   2
WORTHINGTON    CLOUDY    18  12  77 NW23      29.97R WCI   0
$$

IAZ001>003-012>014-020>022-031-032-NEZ013-014-SDZ071-250500-
NORTHWEST IOWA

CITY           SKY/WX    TMP DP  RH WIND       PRES   REMARKS
CHEROKEE       MOCLDY    22  17  83 N16       29.98S WCI   8
DENISON        CLOUDY    21  16  79 N16G22    29.96R WCI   7
ESTHERVILLE    CLOUDY    19  14  81 NW24      29.92R WCI   2
LE MARS        CLEAR     21  14  73 N14       30.03R WCI   8
SHELDON        CLOUDY    19  18  93 N25G35    29.97R WCI   2
SIOUX CITY     CLEAR     24  15  68 N18       30.04R WCI  10
SPENCER        CLOUDY    20  14  77 NW24G32   29.95R WCI   3
STORM LAKE     CLEAR     19  14  79 N23G31    29.95R WCI   2
$$

ABBREVIATIONS USED IN REMARKS
   TC - TEMPERATURE IN CELSIUS
  WCI - WIND CHILL INDEX
   HX - HEAT INDEX
  VSB - VISIBILITY





USA.gov is the U.S. government's official web portal to all federal, state and local government web resources and services.